EW4052 Weather Reports


time (UTC)temp
F
wind
direction
speed
knots
gust
knots
rain 1hr
in
rain 24hr
in
rain mn
in
humidity
%
barometer
mb
20260509144555 56 242 13.9 21.7 0.00 0.00 0.00 66 1005.7
20260509143055 56 253 12.2 20.9 0.00 0.00 0.00 65 1005.5
20260509141600 56 251 12.2 18.2 0.00 0.00 0.00 63 1005.2
20260509140059 56 266 8.7 19.1 0.00 0.00 0.00 61 1005.0
20260509134548 54 237 5.2 7.0 0.00 0.00 0.00 59 1005.2
20260509133047 54 246 0.0 3.5 0.00 0.00 0.00 57 1004.7
20260509131546 54 267 1.7 6.1 0.00 0.00 0.00 58 1004.9
20260509130048 53 277 4.3 8.7 0.00 0.00 0.00 57 1004.9
20260509124547 53 258 5.2 12.2 0.00 0.00 0.00 57 1004.9
20260509123051 52 244 6.1 13.0 0.00 0.00 0.00 56 1004.5
20260509121540 52 248 7.8 13.0 0.00 0.00 0.00 60 1004.6
20260509120138 51 220 7.8 12.2 0.00 0.00 0.00 58 1004.1
20260509114540 49 236 10.4 17.4 0.00 0.00 0.00 61 1004.1
20260509113042 47 239 3.5 9.6 0.00 0.00 0.00 57 1003.6
20260509111544 45 229 0.0 7.0 0.00 0.00 0.00 58 1002.4
20260509110032 45 224 0.0 6.1 0.00 0.00 0.00 59 1002.0
20260509104531 45 182 0.0 2.6 0.00 0.00 0.00 59 1002.1
20260509103029 45 204 0.0 0.0 0.00 0.00 0.00 57 1002.2
20260509101530 46 203 0.0 1.7 0.00 0.00 0.00 56 1002.3
20260509100024 48 199 0.0 7.0 0.00 0.00 0.00 53 1002.4
20260509094527 49 217 1.7 9.6 0.00 0.00 0.00 50 1002.7
20260509093022 48 196 0.0 7.0 0.00 0.00 0.00 52 1002.7
20260509091521 47 185 1.7 7.8 0.00 0.00 0.00 53 1002.7
20260509090019 48 198 0.0 3.5 0.00 0.00 0.00 52 1002.2
20260509084517 48 208 0.9 4.3 0.00 0.00 0.00 53 1002.5
20260509083015 48 224 0.0 1.7 0.00 0.00 0.00 52 1002.5
20260509081510 50 229 0.0 0.0 0.00 0.00 0.00 50 1002.8
20260509080010 50 229 0.0 2.6 0.00 0.00 0.00 49 1002.9
20260509074508 50 232 0.0 0.0 0.00 0.00 0.00 49 1002.8
20260509073008 50 232 0.0 1.7 0.00 0.00 0.00 51 1002.9
20260509071504 53 234 0.0 3.5 0.00 0.00 0.00 50 1003.0
20260509064554 55 239 2.6 5.2 0.00 0.00 0.00 57 1003.5
20260509063059 56 244 2.6 4.3 0.00 0.00 0.00 55 1003.6
20260509061605 56 244 2.6 5.2 0.00 0.00 0.00 51 1003.5
20260509060048 57 247 3.5 5.2 0.00 0.00 0.00 53 1003.6
20260509054555 57 251 2.6 4.3 0.00 0.00 0.00 50 1003.4
20260509053056 58 253 2.6 4.3 0.00 0.00 0.00 51 1003.5
20260509051547 59 261 4.3 7.0 0.00 0.00 0.00 46 1003.6
20260509050038 59 269 4.3 7.0 0.00 0.00 0.00 46 1003.7
20260509044544 59 260 3.5 6.1 0.00 0.00 0.00 46 1003.7
20260509043036 60 262 3.5 7.0 0.00 0.00 0.00 45 1003.5
20260509041536 60 261 4.3 7.0 0.00 0.00 0.00 45 1003.5
20260509040038 61 259 4.3 6.1 0.00 0.00 0.00 48 1003.5
20260509034537 61 274 4.3 6.1 0.00 0.00 0.00 47 1003.4
20260509033035 61 272 4.3 6.1 0.00 0.00 0.00 48 1003.3
20260509031534 62 272 4.3 7.0 0.00 0.00 0.00 45 1003.2
20260509030033 63 265 2.6 5.2 0.00 0.00 0.00 44 1003.0
20260509024535 63 263 2.6 5.2 0.00 0.00 0.00 43 1002.7
20260509023034 63 276 0.9 3.5 0.00 0.00 0.00 46 1002.5
20260509021532 64 277 0.0 0.0 0.00 0.00 0.00 45 1002.2
20260509020036 65 277 1.7 4.3 0.00 0.00 0.00 43 1002.0
20260509014534 66 275 4.3 8.7 0.00 0.00 0.00 40 1001.9
20260509013030 67 273 3.5 8.7 0.00 0.00 0.00 38 1001.7
20260509011530 68 290 6.1 16.5 0.00 0.00 0.00 36 1001.6
20260509010028 69 243 5.2 9.6 0.00 0.00 0.00 39 1001.4
20260509004537 70 230 6.1 14.8 0.00 0.00 0.00 31 1001.4
20260509003027 70 244 9.6 13.9 0.00 0.00 0.00 34 1001.5
20260509001526 71 216 4.3 10.4 0.00 0.00 0.00 27 1001.3
20260509000024 72 234 7.0 16.5 0.00 0.00 0.00 26 1001.5
20260508234524 72 219 11.3 15.6 0.00 0.00 0.00 28 1001.6
20260508233023 73 213 8.7 17.4 0.00 0.00 0.00 24 1001.6
20260508231520 73 237 7.8 14.8 0.00 0.00 0.00 29 1001.6
20260508230018 72 226 3.5 14.8 0.00 0.00 0.00 26 1001.8
20260508224521 72 232 6.1 12.2 0.00 0.00 0.00 32 1001.9
20260508223033 72 223 6.1 15.6 0.00 0.00 0.00 25 1002.1
20260508221514 71 240 7.0 16.5 0.00 0.00 0.00 33 1002.2
20260508220012 71 239 5.2 12.2 0.00 0.00 0.00 26 1002.4
20260508214510 71 252 7.0 17.4 0.00 0.00 0.00 30 1002.5
20260508213008 72 244 7.8 15.6 0.00 0.00 0.00 23 1002.6
20260508211507 71 223 8.7 19.1 0.00 0.00 0.00 26 1002.9
20260508210005 72 255 7.8 17.4 0.00 0.00 0.00 27 1003.0
20260508204504 72 242 4.3 19.1 0.00 0.00 0.00 26 1003.3
20260508203119 71 236 6.1 15.6 0.00 0.00 0.00 25 1003.5
20260508201558 72 261 11.3 19.1 0.00 0.00 0.00 30 1003.8
20260508194555 71 223 6.1 14.8 0.00 0.00 0.00 23 1004.3
20260508193114 71 212 7.8 17.4 0.00 0.00 0.00 25 1004.5
20260508191551 72 240 5.2 15.6 0.00 0.00 0.00 26 1004.8
20260508190045 70 267 1.7 9.6 0.00 0.00 0.00 30 1004.8
20260508184544 70 234 8.7 18.2 0.00 0.00 0.00 24 1005.3
20260508183042 69 221 3.5 14.8 0.00 0.00 0.00 24 1005.4
20260508181543 69 240 2.6 12.2 0.00 0.00 0.00 27 1005.7
20260508180038 69 243 5.2 14.8 0.00 0.00 0.00 25 1005.9
20260508174538 68 251 9.6 15.6 0.00 0.00 0.00 30 1006.1
20260508173032 68 250 8.7 14.8 0.00 0.00 0.00 25 1006.5
20260508171536 68 242 6.1 10.4 0.00 0.00 0.00 27 1006.7
20260508170028 68 229 7.8 14.8 0.00 0.00 0.00 22 1007.0
20260508164524 66 235 5.2 9.6 0.00 0.00 0.00 27 1007.1
20260508163021 65 240 6.1 11.3 0.00 0.00 0.00 27 1007.3
20260508161523 65 244 6.1 13.0 0.00 0.00 0.00 27 1007.6
20260508160017 64 241 6.1 12.2 0.00 0.00 0.00 29 1007.8
20260508154515 65 233 6.1 9.6 0.00 0.00 0.00 30 1007.9
20260508153012 63 230 2.6 12.2 0.00 0.00 0.00 30 1008.1
20260508151510 63 232 4.3 8.7 0.00 0.00 0.00 32 1008.3
20260508150010 61 232 0.0 5.2 0.00 0.00 0.00 35 1008.4